Location: Winthrop
(48.4780°N, 120.1850°W)
Time: 19:08:46
(UTC-07:00)

CAS-4B - Pass Details

Date: 24 May 2022
Orbit: 523 x 537 km, 43.0° (Epoch: 29 June)

Event Time Altitude Azimuth Distance (km) Brightness Sun altitude
Rises 23:06:23 0° 268° (W) 2,652 ? -16.2°
Reaches altitude 10° 23:08:51 10° 255° (WSW) 1,760 ? -16.4°
Enters shadow 23:12:14 26° 198° (SSW) 1,041 ? -16.7°
